TimeEEST,TemperatureF,Dew PointF,Humidity,Sea Level PressureIn,VisibilityMPH,Wind Direction,Wind SpeedMPH,Gust SpeedMPH,PrecipitationIn,Events,Conditions,WindDirDegrees,DateUTC
12:50 AM,46.4,42.8,87,30.09,6.2,Variable,1.2,-,N/A,,Scattered Clouds,0,2012-10-22 21:50:00
1:50 AM,46.4,42.8,87,30.09,6.2,Calm,Calm,-,N/A,,Scattered Clouds,0,2012-10-22 22:50:00
3:00 AM,44,43,95,,6,Calm,Calm,,,,Partly Cloudy,,2012-10-23 00:00:00
3:50 AM,42.8,41.0,93,30.06,6.2,Calm,Calm,-,N/A,,Scattered Clouds,0,2012-10-23 00:50:00
4:50 AM,44.6,42.8,93,30.06,6.2,Calm,Calm,-,N/A,,Scattered Clouds,0,2012-10-23 01:50:00
5:50 AM,42.8,41.0,93,30.06,6.2,Calm,Calm,-,N/A,,Scattered Clouds,0,2012-10-23 02:50:00
6:50 AM,44.6,42.8,93,30.06,6.2,Calm,Calm,-,N/A,,Mostly Cloudy,0,2012-10-23 03:50:00
7:50 AM,46.4,42.8,87,30.06,6.2,Calm,Calm,-,N/A,,Mostly Cloudy,0,2012-10-23 04:50:00
8:50 AM,48.2,44.6,87,30.06,6.2,Calm,Calm,-,N/A,,Mostly Cloudy,0,2012-10-23 05:50:00
9:50 AM,51.8,46.4,82,30.09,6.2,Calm,Calm,-,N/A,,Mostly Cloudy,0,2012-10-23 06:50:00
10:50 AM,53.6,48.2,82,30.09,6.2,NW,2.3,-,N/A,Rain,Light Rain Showers,320,2012-10-23 07:50:00
11:50 AM,53.6,48.2,82,30.09,6.2,West,4.6,-,N/A,Rain,Light Rain Showers,260,2012-10-23 08:50:00
12:50 PM,55.4,50.0,82,30.06,6.2,Variable,1.2,-,N/A,Rain,Light Rain Showers,0,2012-10-23 09:50:00
1:50 PM,55.4,48.2,77,30.06,6.2,Calm,Calm,-,N/A,Rain,Light Rain Showers,0,2012-10-23 10:50:00
2:50 PM,55.4,48.2,77,30.06,6.2,Variable,1.2,-,N/A,,Mostly Cloudy,0,2012-10-23 11:50:00
3:00 PM,56,49,69,,6,ESE,1.2,,,Rain,Light Rain Showers,110,2012-10-23 12:00:00
3:50 PM,55.4,50.0,82,30.06,6.2,Calm,Calm,-,N/A,Rain,Light Rain Showers,0,2012-10-23 12:50:00
4:50 PM,53.6,50.0,88,30.06,6.2,Calm,Calm,-,N/A,Rain,Light Rain Showers,0,2012-10-23 13:50:00
5:50 PM,53.6,51.8,94,30.06,6.2,Calm,Calm,-,N/A,,Mostly Cloudy,0,2012-10-23 14:50:00
7:50 PM,53.6,51.8,94,30.09,6.2,Calm,Calm,-,N/A,,Mostly Cloudy,0,2012-10-23 16:50:00
8:50 PM,51.8,51.8,100,30.09,6.2,Calm,Calm,-,N/A,,Mostly Cloudy,0,2012-10-23 17:50:00
9:00 PM,52,51,94,,12,Calm,Calm,,,,Partly Cloudy,,2012-10-23 18:00:00
9:50 PM,51.8,51.8,100,30.09,6.2,Calm,Calm,-,N/A,Rain,Light Rain Showers,0,2012-10-23 18:50:00
10:50 PM,51.8,51.8,100,30.09,4.3,Calm,Calm,-,N/A,,Mostly Cloudy,0,2012-10-23 19:50:00
11:50 PM,50.0,50.0,100,30.09,3.7,Calm,Calm,-,N/A,,Mostly Cloudy,0,2012-10-23 20:50:00